Home > Weather > Klagenfurt > Past weeks

Flag for Austria Past Weather in Klagenfurt, Carinthia, Austria — Yesterday and Last 2 Weeks

Now
84 °F

Scattered clouds.


Feels Like: 84 °F
Forecast: 62 / 86 °F
Wind: 2 mph from North

Location: Klagenfurt-Flughafen

Current Time: Jul 23, 2016 at 5:07:22 PM

Latest Report: Jul 23, 2016 at 4:20 PM


Visibility: N/A

Pressure: 30.01 "Hg

Humidity: 45%

Dew Point: 61 °F

Location of KlagenfurtLocation

Past Weather in Klagenfurt — Graph

°F

Klagenfurt Temperature Yesterday

Maximum temperature yesterday: 84 °F (at 4:50 PM)
Minimum temperature yesterday: 64 °F (at 1:50 AM)
Average temperature yesterday: 72 °F

High & Low Weather Summary for the Past Weeks

 TemperatureHumidityPressure
High91 °F (Jul 11, 3:50 PM)94% (Jul 8, 11:20 PM)30.21 "Hg (Jul 8, 11:20 PM)
Low48 °F (Jul 15, 4:50 AM)31% (Jul 14, 4:50 PM)29.80 "Hg (Jul 13, 1:50 PM)
Average70 °F66%30.05 "Hg
* Reported Jul 8 3:20 PM — Jul 23 3:50 PM, Klagenfurt, Weather by CustomWeather, © 2016

Note: Actual official high and low records may vary slightly from our data, if they occured in-between our weather recording intervals... More about our weather records

Advertising

Klagenfurt Weather History for the Previous 24 Hours

Scroll right to see more
 ConditionsComfort  
Time TempWeatherWind HumidityBarometerVisibility
3:50 PM
Sat, Jul 23
84 °FScattered clouds.3 mph43%30.01 "HgN/A
3:20 PM82 °FScattered clouds.1 mph48%30.04 "HgN/A
2:50 PM82 °FScattered clouds.3 mph48%30.04 "HgN/A
2:20 PM81 °FScattered clouds.2 mph51%30.04 "HgN/A
1:50 PM81 °FScattered clouds.5 mph54%30.04 "HgN/A
1:20 PM81 °FPassing clouds.2 mph58%30.04 "HgN/A
12:50 PM79 °FPassing clouds.2 mph58%30.04 "HgN/A
12:20 PM77 °FPassing clouds.3 mph61%30.07 "HgN/A
11:50 AM75 °FPassing clouds.2 mph61%30.07 "HgN/A
11:20 AM75 °FScattered clouds.1 mph65%30.07 "HgN/A
10:50 AM73 °FScattered clouds.3 mph69%30.07 "HgN/A
10:20 AM72 °FScattered clouds.3 mph69%30.07 "HgN/A
9:50 AM70 °FScattered clouds.2 mph73%30.07 "HgN/A
9:20 AM68 °FScattered clouds.3 mph78%30.07 "HgN/A
8:50 AM68 °FScattered clouds.2 mph78%30.07 "HgN/A
8:20 AM66 °FPartly sunny.2 mph83%30.07 "HgN/A
7:50 AM64 °FPartly sunny.3 mph88%30.07 "HgN/A
7:20 AM64 °FPartly sunny.2 mph88%30.07 "HgN/A
6:50 AM63 °FPartly sunny.3 mph88%30.07 "HgN/A
6:20 AM61 °FPassing clouds.6 mph94%30.07 "HgN/A
5:50 AM61 °FPassing clouds.3 mph94%30.04 "HgN/A
5:20 AM61 °FCool.5 mph94%30.04 "HgN/A
4:50 AM63 °FMild.5 mph88%30.04 "HgN/A
4:20 AM63 °FMild.3 mph94%30.04 "HgN/A
3:50 AM63 °FMild.5 mph94%30.04 "HgN/A
3:20 AM63 °FMild.3 mph94%30.07 "HgN/A
2:50 AM64 °FMild.5 mph88%30.07 "HgN/A
2:20 AM64 °FMild.6 mph88%30.07 "HgN/A
1:50 AM64 °FMild.5 mph88%30.07 "HgN/A
1:20 AM66 °FMild.3 mph83%30.04 "HgN/A
12:50 AM66 °FMild.6 mph83%30.07 "HgN/A
12:20 AM66 °FPassing clouds.3 mph83%30.07 "HgN/A
11:50 PM
Fri, Jul 22
68 °FPassing clouds.3 mph78%30.07 "HgN/A
11:20 PM68 °FPassing clouds.6 mph78%30.04 "HgN/A
10:50 PM70 °FPassing clouds.3 mph73%30.04 "HgN/A
10:20 PM70 °FPassing clouds.6 mph73%30.04 "HgN/A
9:50 PM72 °FPartly cloudy.6 mph73%30.04 "HgN/A
9:20 PM73 °FBroken clouds.6 mph65%30.04 "HgN/A
8:50 PM73 °FPartly sunny.5 mph65%30.01 "HgN/A
8:20 PM75 °FPartly sunny.12 mph69%30.01 "HgN/A
7:50 PM79 °FThunderstorms. Broken clouds.7 mph65%29.98 "HgN/A
7:20 PM79 °FBroken clouds.5 mph70%29.98 "HgN/A
6:50 PM81 °FBroken clouds.5 mph66%29.98 "HgN/A
6:20 PM82 °FScattered clouds.5 mph55%29.95 "HgN/A
5:50 PM82 °FScattered clouds.5 mph58%29.95 "HgN/A
5:20 PM84 °FScattered clouds.6 mph55%29.95 "HgN/A
Weather by CustomWeather, © 2016

See weather overviewHow to use our weather pages